Flag for Switzerland Weather past 2 weeks in Sarnen, Obwalden, Switzerland

Now
42 °F

Quite cool.


Feels Like: 42 °F
Forecast: 46 / 69 °F
Wind: 1 mph from West

Location: Giswil


UV Index: 0 (Low)

Visibility: N/A


Pressure: 29.88 "Hg

Humidity: 97%

Dew point: 41 °F

Location of SarnenLocation

Historic Weather in Sarnen

°F

Sarnen temperature yesterday

Maximum temperature yesterday: 69 °F (at 5:00 PM)
Minimum temperature yesterday: 49 °F (at 3:00 AM)
Average temperature yesterday: 57 °F

Past Weeks' High & Low Weather Summary

 TemperatureHumidityPressure
High70 °F (Apr 23, 5:00 PM)99% (Apr 22, 3:00 AM)30.36 "Hg (Apr 22, 3:00 AM)
Low27 °F (Apr 17, 7:00 AM)32% (Apr 10, 5:00 PM)29.61 "Hg (Apr 20, 6:00 PM)
Average49 °F73%30.02 "Hg
* Reported Apr 10 7:00 AM — Apr 25 7:00 AM, Sarnen, Weather by CustomWeather, © 2014

Note: Actual official high and low records may vary slightly from our data, if they occured in-between our weather recording intervals... More about our weather records

Advertising

Historic Weather Conditions — Data for Previous 24 hours

 ConditionsComfort  
Time TempWeatherWind HumidityBarometerVisibility
7:00 AM
Apr 25
42 °FQuite cool.1 mph97%29.88 "HgN/A
6:00 AM41 °FQuite cool.1 mph97%29.88 "HgN/A
5:00 AM43 °FQuite cool.1 mph96%29.88 "HgN/A
4:00 AM45 °FCool.2 mph94%29.88 "HgN/A
3:00 AM43 °FQuite cool.1 mph94%29.90 "HgN/A
2:00 AM46 °FCool.1 mph93%29.91 "HgN/A
1:00 AM47 °FCool.No wind93%29.91 "HgN/A
12:00 AM49 °FCool.1 mph87%29.90 "HgN/A
11:00 PM
Apr 24
51 °FCool.1 mph86%29.91 "HgN/A
10:00 PM54 °FCool.3 mph81%29.91 "HgN/A
9:00 PM58 °FCool.5 mph72%29.90 "HgN/A
8:00 PM63 °FMild.2 mph68%29.89 "HgN/A
7:00 PM67 °FMild.1 mph53%29.88 "HgN/A
6:00 PM67 °FMild.5 mph51%29.89 "HgN/A
5:00 PM69 °FMild.6 mph47%29.89 "HgN/A
4:00 PM69 °FMild.6 mph47%29.91 "HgN/A
3:00 PM68 °FMild.6 mph49%29.95 "HgN/A
2:00 PM67 °FMild.5 mph51%29.97 "HgN/A
1:00 PM64 °FMild.3 mph55%30.01 "HgN/A
12:00 PM63 °FMild.2 mph56%30.04 "HgN/A
11:00 AM59 °FCool.1 mph67%30.07 "HgN/A
10:00 AM56 °FCool.3 mph79%30.09 "HgN/A
9:00 AM53 °FCool.No wind86%30.11 "HgN/A
8:00 AM50 °FCool.No wind97%30.12 "HgN/A
Weather by CustomWeather, © 2014

See weather overview